Weather in Ialyssos

Greece     36°25′00″N   28°09′15″E
temp.,
°C
wind,
m/s
gust,
m/s
humid.,
%
clouds,
%
prec.,
mm/h
press.,
hPa
HPBL,
m
9 may, sun
sun900:00+20ne22780 0.0 101115
03:00+21n33680 0.0 101115
06:00+20w67761 0.0 101187
09:00+20wnw79781 0.0 1012190
12:00+21wnw810735 0.0 1011116
15:00+22w913675 0.0 1011135
18:00+24wnw1217535 0.0 1009154
21:00+22nw79665 0.0 101072
10 may, mon
mon1000:00+20nw79715 0.0 1011106
03:00+20nw66700 0.0 1010103
06:00+20nnw33620 0.0 101141
09:00+20nw33550 0.0 101361
12:00+20wnw55570 0.0 1013100
15:00+21w78590 0.0 1012148
18:00+21w79630 0.0 1011138
21:00+20w67710 0.0 1011125
11 may, tue
tue1100:00+20w56690 0.0 1011115
03:00+20w67740 0.0 1009224
06:00+19w67720 0.0 1009261
09:00+19wnw66705 0.0 1010332
12:00+20wnw66695 0.0 1011188
15:00+21w676410 0.0 1010131
18:00+20w786913 0.0 1010293
21:00+19w78760 0.0 1010229
12 may, wed
wed1200:00+19w56730 0.0 1010262
03:00+19w67790 0.0 1008263
06:00+19w77795 0.0 1009366
09:00+19w44755 0.0 1010304
12:00+20w44710 0.0 1010167
15:00+20w44710 0.0 1010204
18:00+20w56715 0.0 1011271
21:00+19w56745 0.0 1011218
13 may, thu
thu1300:00+19wnw55680 0.0 1011261
03:00+19wnw34670 0.0 1011225
06:00+19nw11640 0.0 1011103
09:00+19se22610 0.0 101299
12:00+20se67700 0.0 1012198
15:00+21sse67740 0.0 1012185
18:00+20se55815 0.0 1012322
21:00+20ese22840 0.0 101380